Вернуться в каталог

STARLINK-4170

АктивенСвязьVLEO
NORAD 53140·PAYLOAD·🇺🇸 United States

Запущен Jul 17, 2022 с Cape Canaveral Space Force Station

Loading…

Ближайшие Пролёты (ближайшие 24 часа)

TLE

СвежийSource: CelesTrak SupGP

Эпоха: Sep 15, 2026, 02:58 UTC

1 53140C 22083J   26258.12409722 -.00012000  00000+0 -34342-3 0  2589
2 53140  53.1592  31.3079 0001148  88.9557 272.5605 15.35397568    19

Отслеживайте STARLINK-4170 в реальном времени с AllMySat

Download on the App Store